Вернуться в каталог

STARLINK-32509

АктивенСвязьVLEO
NORAD 62042·PAYLOAD·🇺🇸 United States

Запущен Nov 21, 2024 с Cape Canaveral Space Force Station

Loading…

Ближайшие Пролёты (ближайшие 24 часа)

TLE

СвежийSource: CelesTrak SupGP

Эпоха: Sep 15, 2026, 03:48 UTC

1 62042C 24216L   26258.15881944 -.00033361  00000+0 -12084-2 0  2584
2 62042  43.0002 266.3377 0001356 264.7283  39.9333 15.27593846    17

Отслеживайте STARLINK-32509 в реальном времени с AllMySat

Download on the App Store